This is the latest recevied weather packets stored in our database for station/object KE8AFF-13. If no packets are shown the sender has not sent any weather packets the latest 10 day(s).
| Time | Temp. | Humidity | Pressure | Rain* | Wind** | Luminosity | Snow |
|---|---|---|---|---|---|---|---|
| 1777730391 | 4.44° C | 86% | 1019 hPa | 0 mm | - | 691 W/m² | - |
| 1777730087 | 3.89° C | 87% | 1018.9 hPa | 0 mm | - | 254 W/m² | - |
| 1777729784 | 3.89° C | 88% | 1019 hPa | 0 mm | - | 431 W/m² | - |
| 1777729481 | 3.89° C | 88% | 1018.8 hPa | 0 mm | - | 171 W/m² | - |
| 1777729177 | 3.89° C | 89% | 1018.9 hPa | 0 mm | - | 235 W/m² | - |
| 1777728874 | 3.89° C | 89% | 1019 hPa | 0 mm | - | 213 W/m² | - |
| 1777728571 | 3.89° C | 88% | 1019.1 hPa | 0 mm | - | 153 W/m² | - |
| 1777728268 | 3.89° C | 89% | 1018.7 hPa | 0 mm | - | 520 W/m² | - |
| 1777727965 | 3.33° C | 89% | 1018.4 hPa | 0 mm | - | 196 W/m² | - |
| 1777727662 | 3.33° C | 88% | 1018.6 hPa | 0 mm | - | 384 W/m² | - |
| 1777727359 | 3.33° C | 88% | 1018.5 hPa | 0 mm | - | 340 W/m² | - |
| 1777727056 | 3.33° C | 89% | 1018.7 hPa | 0 mm | - | 317 W/m² | - |
| 1777726754 | 2.78° C | 89% | 1018.7 hPa | 0 mm | - | 328 W/m² | - |
| 1777726451 | 2.78° C | 89% | 1018.6 hPa | 0 mm | - | 336 W/m² | - |
| 1777726147 | 2.78° C | 89% | 1018.5 hPa | 0 mm | - | 147 W/m² | - |
| 1777725838 | 2.78° C | 88% | 1018.3 hPa | 0 mm | - | 292 W/m² | - |
| 1777725536 | 2.78° C | 88% | 1018.7 hPa | 0 mm | - | 253 W/m² | - |
| 1777725233 | 2.78° C | 87% | 1018.3 hPa | 0 mm | - | 222 W/m² | - |
| 1777724930 | 2.78° C | 87% | 1018.4 hPa | 0 mm | - | 213 W/m² | - |
| 1777724625 | 2.78° C | 87% | 1018.4 hPa | 0 mm | - | 208 W/m² | - |
| 1777724319 | 2.22° C | 87% | 1018.4 hPa | 0 mm | - | 196 W/m² | - |
| 1777724016 | 2.22° C | 86% | 1018.4 hPa | 0 mm | - | 188 W/m² | - |
| 1777723713 | 2.22° C | 86% | 1018.3 hPa | 0 mm | - | 155 W/m² | - |
| 1777723409 | 2.22° C | 86% | 1018.1 hPa | 0 mm | - | 140 W/m² | - |
| 1777723107 | 1.67° C | 86% | 1018.2 hPa | 0 mm | - | 55 W/m² | - |
* Rain latest hour (hover to see other rain measurements)
** Current wind speed in m/s (hover to see current wind gust speed)